Location: Granger
(41.1556°N, 81.7318°W)
Time: 09:40:58
(UTC+00:00)

Daily predictions for brighter satellites

Satellite Brightness Start Highest point End
(mag) Time Altitude Azimuth Time Altitude Azimuth Time Altitude Azimuth
STARLINK-1056 4.1 23:39:29 10° WSW 23:43:35 61° NW 23:47:41 10° NE
Meteor 1-27 Rocket 4.4 23:41:28 10° NNW 23:47:00 63° W 23:52:36 10° S
Cosmos 1470 Rocket 3.8 23:43:39 10° SSW 23:48:00 76° W 23:52:26 10° N
STARLINK-1054 4.2 23:44:30 10° WSW 23:48:33 56° NW 23:52:39 10° NE
Cosmos 2369 Rocket 3.8 23:43:45 10° SW 23:48:56 36° WNW 23:54:09 10° N
Cosmos 1464 Rocket 4.3 23:44:00 10° SSE 23:50:00 46° E 23:56:03 10° NNE
CZ-2D R/B 3.5 23:48:07 10° SSE 23:51:52 49° ENE 23:55:38 10° N
Okean 1-7 3.6 23:48:27 10° N 23:52:28 36° ENE 23:56:29 10° SE
STARLINK-1062 4.3 23:49:29 10° WSW 23:53:31 52° NNW 23:57:34 10° NE
Cosmos 1939 Rocket 3.0 23:51:09 10° SSE 23:55:13 58° ENE 23:59:17 10° N
Ariane Rocket 3.9 23:51:27 10° ESE 23:55:41 27° ENE 23:59:56 10° N
Hubble Space Telescope 3.4 23:56:25 10° SSW 23:57:37 11° SSW 23:58:49 10° S
